Location: Coleto Creek Park and Reservoir
(28.7196°N, 97.1740°W)
Time: 16:21:11
(UTC-05:00)

HST - Visible Passes

Search period start: 24 October 2014 00:00
Search period end: 02 November 2014 23:00
Orbit: 546 x 550 km, 28.5° (Epoch: 23 October)

Date Brightness Start Highest point End Pass type
(mag) Time Alt. Az. Time Alt. Az. Time Alt. Az.
24 Oct 1.8 19:52:02 10° SW 19:55:48 32° SSE 19:57:30 23° ESE visible
24 Oct 4.0 21:32:51 10° WSW 21:33:03 11° WSW 21:33:03 11° WSW visible
25 Oct 1.5 19:44:33 10° SW 19:48:29 41° SSE 19:50:43 22° ESE visible
25 Oct 3.8 21:25:35 10° W 21:26:16 14° W 21:26:16 14° W visible
26 Oct 1.3 19:37:07 10° WSW 19:41:11 50° SSE 19:43:54 19° E visible
26 Oct 3.5 21:18:20 10° W 21:19:27 18° W 21:19:27 18° W visible
27 Oct 1.0 19:29:45 10° WSW 19:33:53 60° SSE 19:37:03 16° E visible
27 Oct 3.2 21:11:05 10° W 21:12:36 22° W 21:12:36 22° W visible
28 Oct 0.9 19:22:26 10° WSW 19:26:36 70° S 19:30:11 14° E visible
28 Oct 2.9 21:03:49 10° W 21:05:43 26° W 21:05:43 26° W visible
29 Oct 0.9 19:15:08 10° W 19:19:19 79° S 19:23:18 11° E visible
29 Oct 2.5 20:56:33 10° W 20:58:50 31° W 20:58:50 31° W visible
30 Oct 0.8 19:07:50 10° W 19:12:02 85° S 19:16:14 10° E visible
30 Oct 2.1 20:49:17 10° W 20:51:58 38° W 20:51:58 38° W visible
31 Oct 0.8 19:00:33 10° W 19:04:45 88° S 19:08:57 10° E visible
31 Oct 1.7 20:42:00 10° W 20:45:06 46° WSW 20:45:06 46° WSW visible
01 Nov 1.5 20:34:44 10° W 20:38:18 51° SW 20:38:18 51° SW visible
02 Nov 1.5 19:27:28 10° W 19:31:29 46° SSW 19:31:32 46° SSW visible
